CAPE
69 167 285 254 234 242 154 105 55 51 39 11 1 0 2 0 0 1 2 3 22 7 0 0 0 0 0 0 0 0 0 0 0 0 0 0 0 0 0 0 0 0
54 115 112 181 61 5 9 18 8 12 4 44 13 1 0 1 2 3 12 25 17 8 0 0 0 0 0 0 0 0 0 0 0 0 0 0 0 0 0 0 0 0
309 233 112 132 129 31 7 0 0 0 18 56 34 19 8 14 8 3 10 20 7 8 3 3 2 0 0 0 0 0 0 0 0 0 0 0 0 0 0 0 0 0
473 300 251 340 290 128 8 0 0 0 6 22 65 53 43 20 21 8 10 1 4 0 0 0 4 0 0 0 0 0 0 0 0 0 0 0 0 0 0 0 0 0
496 304 352 227 152 83 21 28 3 3 31 127 71 13 42 80 67 26 34 1 0 0 0 0 0 2 0 0 0 0 0 0 0 0 0 0 0 0 0 0 0 0
402 257 190 152 153 136 75 65 18 4 1 5 30 0 27 68 68 41 39 42 5 0 0 0 1 0 0 0 0 0 0 0 0 0 0 0 0 0 0 0 0 0
412 393 410 353 167 12 101 193 38 2 3 2 0 10 0 7 12 43 36 25 14 0 0 1 0 0 0 0 0 0 0 0 0 0 0 0 0 0 0 0 0 0
474 486 534 562 346 310 285 262 214 1 1 2 3 0 61 82 18 95 107 82 57 19 4 0 0 0 0 0 0 0 0 0 0 0 0 0 0 0 0 0 0 0
551 609 624 721 467 440 322 261 354 274 18 277 2 4 78 94 92 249 164 126 126 114 63 41 29 46 121 159 132 32 2 0 0 0 0 0 0 0 0 0 0 0
558 571 723 837 661 605 576 497 480 493 433 511 346 22 302 387 345 260 148 122 138 146 134 78 68 122 223 182 62 47 12 4 3 0 0 0 0 0 0 0 0 0
745 535 698 869 845 670 737 668 772 799 721 396 437 467 450 538 584 432 369 337 344 131 80 92 1 137 129 197 308 264 52 62 16 2 21 2 12 0 0 0 0 0
1004 872 748 805 754 699 868 889 845 745 622 504 545 501 439 551 675 452 682 656 388 177 260 389 117 25 19 34 104 318 318 194 81 15 6 3 0 0 0 0 0 0
962 923 841 651 644 782 976 791 762 874 728 640 576 662 698 672 520 466 441 518 317 346 428 345 235 126 79 92 87 312 361 354 304 153 30 15 11 4 0 0 0 0
938 917 859 646 527 606 634 802 892 966 1019 912 710 813 814 587 576 589 664 425 347 275 337 301 287 233 230 271 93 381 362 324 264 57 176 190 162 134 6 0 0 0
840 777 648 534 532 531 692 731 718 750 560 572 552 695 749 626 518 584 644 593 380 379 316 327 337 290 232 314 393 406 345 366 411 274 282 228 242 240 178 181 16 117
697 646 586 545 539 507 481 409 408 403 366 425 495 525 503 269 236 307 326 400 400 343 340 358 294 272 214 338 347 340 415 386 440 446 393 385 379 337 168 59 123 104
779 723 648 558 558 517 624 380 346 379 408 433 351 304 307 234 293 289 345 331 316 408 422 378 349 278 0 0 9 10 142 195 372 402 435 401 404 533 394 336 109 65
704 620 563 563 559 552 500 424 348 294 232 42 141 165 329 330 226 375 384 369 374 381 314 243 161 0 0 0 0 0 0 16 110 268 380 456 526 499 441 388 361 444
468 471 466 444 414 370 316 292 246 213 165 238 127 276 263 294 253 202 10 0 26 58 168 7 35 0 0 0 0 0 0 0 0 24 271 287 386 376 506 523 440 369
60 2 6 5 11 42 90 146 206 203 87 27 36 10 66 24 4 14 0 11 23 65 12 0 0 0 0 0 0 0 0 0 0 0 52 272 376 348 310 407 402 414
0 0 0 0 0 0 8 3 5 5 31 40 92 184 266 222 118 74 8 0 1 4 74 78 1 0 0 0 0 0 0 0 0 0 0 94 290 371 392 388 374 337
0 0 0 0 0 0 0 0 2 22 22 1 0 0 0 0 0 16 40 19 0 9 122 63 3 0 0 0 0 0 0 0 0 0 0 48 202 258 294 305 250 184
0 0 0 0 0 0 0 1 0 0 0 0 23 27 22 14 3 0 0 5 2 22 81 34 12 0 0 0 0 0 0 40 13 0 0 0 0 0 0 114 99 54
0 0 0 0 0 0 0 1 4 21 42 60 73 64 40 1 0 0 0 0 0 0 1 9 0 0 0 0 0 0 9 92 31 2 0 0 0 0 0 0 0 0
0 0 0 0 0 0 0 0 26 31 12 19 123 144 76 0 0 0 0 0 0 0 0 0 0 0 0 0 0 0 0 50 6 0 0 0 0 0 0 0 0 0
0 0 0 0 0 1 0 18 0 0 0 17 1 2 2 0 0 0 0 0 0 0 0 0 0 0 0 0 0 0 0 2 0 0 0 0 0 0 0 0 0 0
Wind_Speed
nan 14 15 16 18 20 22 24 nan nan nan nan nan nan nan nan nan nan nan nan nan nan nan nan nan nan nan nan nan nan nan nan nan nan nan nan nan nan nan nan nan nan
nan 16 15 16 nan nan nan nan nan nan nan nan nan nan nan nan nan nan nan nan nan nan nan nan nan nan nan nan nan nan nan nan nan nan nan nan nan nan nan nan nan nan
13 13 14 14 16 nan nan nan nan nan nan nan nan nan nan nan nan nan nan nan nan nan nan nan nan nan nan nan nan nan nan nan nan nan nan nan nan nan nan nan nan nan
8 9 11 13 15 17 nan nan nan nan nan nan nan nan nan nan nan nan nan nan nan nan nan nan nan nan nan nan nan nan nan nan nan nan nan nan nan nan nan nan nan nan
10 10 12 14 15 nan nan nan nan nan nan 20 nan nan nan nan nan nan nan nan nan nan nan nan nan nan nan nan nan nan nan nan nan nan nan nan nan nan nan nan nan nan
9 11 13 15 16 18 nan nan nan nan nan nan nan nan nan nan nan nan nan nan nan nan nan nan nan nan nan nan nan nan nan nan nan nan nan nan nan nan nan nan nan nan
10 11 15 17 18 nan 17 17 nan nan nan nan nan nan nan nan nan nan nan nan nan nan nan nan nan nan nan nan nan nan nan nan nan nan nan nan nan nan nan nan nan nan
13 14 16 18 19 18 18 17 17 nan nan nan nan nan nan nan nan nan 19 nan nan nan nan nan nan nan nan nan nan nan nan nan nan nan nan nan nan nan nan nan nan nan
16 17 17 18 19 19 19 19 20 20 nan 21 nan nan nan nan nan 20 20 19 17 16 nan nan nan nan 17 18 19 nan nan nan nan nan nan nan nan nan nan nan nan nan
16 17 18 18 19 18 18 18 18 18 18 18 21 nan 23 21 21 21 22 21 19 19 20 nan nan 18 18 19 nan nan nan nan nan nan nan nan nan nan nan nan nan nan
16 18 20 20 18 17 17 17 16 16 16 18 19 20 22 22 23 24 22 20 22 23 nan nan nan 19 18 16 17 18 nan nan nan nan nan nan nan nan nan nan nan nan
15 19 23 19 14 15 17 17 16 16 17 18 19 21 21 19 21 22 21 20 23 25 22 20 21 nan nan nan 15 15 16 17 nan nan nan nan nan nan nan nan nan nan
19 20 20 20 18 16 18 18 18 19 20 22 21 21 21 20 21 22 22 23 24 24 22 22 22 22 nan nan nan 16 17 18 19 18 nan nan nan nan nan nan nan nan
25 25 26 25 23 23 23 23 23 24 24 24 22 22 22 23 24 23 25 26 27 27 27 26 25 24 21 19 nan 19 21 22 22 nan 21 21 20 17 nan nan nan nan
30 30 29 29 29 29 28 28 28 28 28 27 26 25 25 27 27 26 25 26 28 28 28 28 27 26 25 24 24 24 25 26 27 27 26 25 25 24 23 22 nan 23
34 34 32 32 32 31 31 32 32 32 32 31 30 29 30 31 30 29 28 27 27 28 29 30 31 31 32 31 29 29 28 29 29 29 29 30 30 30 31 nan 32 27
37 36 35 33 35 35 36 37 37 37 36 36 35 34 33 33 33 33 33 32 32 32 34 35 35 37 nan nan nan nan 29 29 30 31 31 31 31 31 33 35 31 nan
40 40 38 37 37 38 39 40 41 41 40 nan 38 37 37 36 36 37 37 37 37 38 38 39 40 nan nan nan nan nan nan nan 33 33 34 34 33 32 33 34 33 31
43 42 42 42 42 43 42 42 42 43 43 42 42 41 41 41 41 40 nan nan nan nan 39 nan nan nan nan nan nan nan nan nan nan nan 35 35 34 33 32 33 33 32
nan nan nan nan nan nan nan 43 43 44 nan nan nan nan nan nan nan nan nan nan nan nan nan nan nan nan nan nan nan nan nan nan nan nan nan 36 35 34 33 33 34 34
nan nan nan nan nan nan nan nan nan nan nan nan nan 44 44 44 44 nan nan nan nan nan nan nan nan nan nan nan nan nan nan nan nan nan nan nan 39 38 36 36 37 37
nan nan nan nan nan nan nan nan nan nan nan nan nan nan nan nan nan nan nan nan nan nan 45 nan nan nan nan nan nan nan nan nan nan nan nan nan 43 43 42 42 41 41
nan nan nan nan nan nan nan nan nan nan nan nan nan nan nan nan nan nan nan nan nan nan nan nan nan nan nan nan nan nan nan nan nan nan nan nan nan nan nan 45 nan nan
nan nan nan nan nan nan nan nan nan nan nan nan nan nan nan nan nan nan nan nan nan nan nan nan nan nan nan nan nan nan nan nan nan nan nan nan nan nan nan nan nan nan
nan nan nan nan nan nan nan nan nan nan nan nan 39 41 nan nan nan nan nan nan nan nan nan nan nan nan nan nan nan nan nan nan nan nan nan nan nan nan nan nan nan nan
nan nan nan nan nan nan nan nan nan nan nan nan nan nan nan nan nan nan nan nan nan nan nan nan nan nan nan nan nan nan nan nan nan nan nan nan nan nan nan nan nan nan
Wind_Direction
nan 283 279 276 272 272 274 275 nan nan nan nan nan nan nan nan nan nan nan nan nan nan nan nan nan nan nan nan nan nan nan nan nan nan nan nan nan nan nan nan nan nan
nan 285 277 273 nan nan nan nan nan nan nan nan nan nan nan nan nan nan nan nan nan nan nan nan nan nan nan nan nan nan nan nan nan nan nan nan nan nan nan nan nan nan
281 284 285 287 280 nan nan nan nan nan nan nan nan nan nan nan nan nan nan nan nan nan nan nan nan nan nan nan nan nan nan nan nan nan nan nan nan nan nan nan nan nan
279 286 287 281 275 279 nan nan nan nan nan nan nan nan nan nan nan nan nan nan nan nan nan nan nan nan nan nan nan nan nan nan nan nan nan nan nan nan nan nan nan nan
282 277 267 265 266 nan nan nan nan nan nan 275 nan nan nan nan nan nan nan nan nan nan nan nan nan nan nan nan nan nan nan nan nan nan nan nan nan nan nan nan nan nan
265 270 271 270 269 271 nan nan nan nan nan nan nan nan nan nan nan nan nan nan nan nan nan nan nan nan nan nan nan nan nan nan nan nan nan nan nan nan nan nan nan nan
275 273 274 269 270 nan 269 268 nan nan nan nan nan nan nan nan nan nan nan nan nan nan nan nan nan nan nan nan nan nan nan nan nan nan nan nan nan nan nan nan nan nan
272 269 270 272 273 269 266 269 274 nan nan nan nan nan nan nan nan nan 272 nan nan nan nan nan nan nan nan nan nan nan nan nan nan nan nan nan nan nan nan nan nan nan
265 268 269 271 271 269 272 275 276 277 nan 281 nan nan nan nan nan 265 267 269 266 261 nan nan nan nan 263 263 264 nan nan nan nan nan nan nan nan nan nan nan nan nan
263 266 271 269 269 270 278 281 282 283 281 277 278 nan 276 270 269 268 266 268 270 269 268 nan nan 259 263 265 nan nan nan nan nan nan nan nan nan nan nan nan nan nan
259 262 262 263 268 275 287 289 287 282 276 272 271 273 273 270 263 262 266 269 271 273 nan nan nan 259 262 264 267 271 nan nan nan nan nan nan nan nan nan nan nan nan
262 264 264 266 268 276 288 289 284 282 278 274 275 274 272 269 265 265 265 265 268 271 269 267 264 nan nan nan 256 265 273 273 nan nan nan nan nan nan nan nan nan nan
262 271 281 286 286 279 276 280 282 281 283 283 280 278 276 272 267 266 263 262 263 265 264 263 264 265 nan nan nan 266 268 268 267 265 nan nan nan nan nan nan nan nan
266 274 282 285 281 276 276 278 278 279 280 277 276 275 274 274 272 272 271 268 265 263 262 260 259 260 262 264 nan 270 270 269 266 nan 259 258 255 258 nan nan nan nan
273 277 282 286 284 282 281 278 276 274 274 273 271 273 272 271 270 269 267 264 261 260 260 259 260 260 258 259 265 270 270 268 267 266 262 256 254 256 264 270 nan 277
275 276 279 279 279 280 278 276 276 275 274 273 272 270 268 266 265 263 261 261 260 259 258 257 257 258 259 260 262 266 266 264 263 262 261 260 258 259 264 nan 266 269
274 274 273 275 274 274 272 274 276 275 274 272 270 267 265 262 260 259 258 259 259 259 259 259 259 260 nan nan nan nan 267 266 265 263 263 263 263 263 264 268 270 nan
270 271 271 270 268 269 269 269 270 272 272 nan 269 269 267 265 263 260 260 260 259 258 258 259 261 nan nan nan nan nan nan nan 265 265 266 267 267 267 266 267 266 264
266 268 268 268 267 267 268 268 269 270 271 272 271 267 266 265 263 262 nan nan nan nan 259 nan nan nan nan nan nan nan nan nan nan nan 268 269 268 268 266 264 265 264
nan nan nan nan nan nan nan 265 265 264 nan nan nan nan nan nan nan nan nan nan nan nan nan nan nan nan nan nan nan nan nan nan nan nan nan 265 264 264 263 262 264 264
nan nan nan nan nan nan nan nan nan nan nan nan nan 261 262 263 262 nan nan nan nan nan nan nan nan nan nan nan nan nan nan nan nan nan nan nan 263 262 261 261 263 266
nan nan nan nan nan nan nan nan nan nan nan nan nan nan nan nan nan nan nan nan nan nan 266 nan nan nan nan nan nan nan nan nan nan nan nan nan 265 264 264 264 265 267
nan nan nan nan nan nan nan nan nan nan nan nan nan nan nan nan nan nan nan nan nan nan nan nan nan nan nan nan nan nan nan nan nan nan nan nan nan nan nan 265 nan nan
nan nan nan nan nan nan nan nan nan nan nan nan nan nan nan nan nan nan nan nan nan nan nan nan nan nan nan nan nan nan nan nan nan nan nan nan nan nan nan nan nan nan
nan nan nan nan nan nan nan nan nan nan nan nan 261 263 nan nan nan nan nan nan nan nan nan nan nan nan nan nan nan nan nan nan nan nan nan nan nan nan nan nan nan nan
nan nan nan nan nan nan nan nan nan nan nan nan nan nan nan nan nan nan nan nan nan nan nan nan nan nan nan nan nan nan nan nan nan nan nan nan nan nan nan nan nan nan